Flag for Germany Weather past 2 weeks in Soest, North Rhine-Westphalia, Germany

Now
64 °F

Passing clouds.


Feels Like: 64 °F
Forecast: 45 / 65 °F
Wind: 5 mph from Northwest

Location: Dortmund / Wickede

Current Time: May 22, 2015 at 2:34:52 PM

Latest Report: May 22, 2015 at 2:20 PM


Visibility: N/A

Pressure: 30.24 "Hg

Humidity: 34%

Dew point: 36 °F

Location of SoestLocation

Historic Weather in Soest — Graph

°F

Soest temperature yesterday

Maximum temperature yesterday: 64 °F (at 4:20 PM)
Minimum temperature yesterday: 41 °F (at 5:20 AM)
Average temperature yesterday: 55 °F

Past Weeks' High & Low Weather Summary

 TemperatureHumidityPressure
High77 °F (May 11, 3:50 PM)93% (May 16, 6:20 AM)30.33 "Hg (May 16, 6:20 AM)
Low39 °F (May 14, 5:20 AM)29% (May 11, 2:50 PM)29.62 "Hg (May 18, 7:20 PM)
Average57 °F58%30.05 "Hg
* Reported May 7 1:20 PM — May 22 1:20 PM, Soest, Weather by CustomWeather, © 2015

Note: Actual official high and low records may vary slightly from our data, if they occured in-between our weather recording intervals... More about our weather records

Advertising

Soest weather history for previous 24 hours

 ConditionsComfort  
Time TempWeatherWind HumidityBarometerVisibility
1:20 PM
Fri, May 22
64 °FPassing clouds.5 mph37%30.27 "HgN/A
12:50 PM63 °FScattered clouds.3 mph37%30.27 "HgN/A
12:20 PM64 °FScattered clouds.3 mph43%30.30 "HgN/A
11:50 AM63 °FSunny.3 mph42%30.30 "Hg10 mi
11:20 AM61 °FPassing clouds.5 mph45%30.30 "HgN/A
10:50 AM59 °FSunny.3 mph48%30.30 "Hg10 mi
10:20 AM59 °FSunny.3 mph48%30.30 "Hg10 mi
9:50 AM59 °FSunny.2 mph51%30.33 "Hg10 mi
9:20 AM57 °FPassing clouds.5 mph51%30.33 "HgN/A
8:50 AM55 °FPassing clouds.7 mph63%30.33 "HgN/A
8:20 AM54 °FSunny.6 mph67%30.33 "Hg10 mi
7:50 AM50 °FSunny.6 mph76%30.33 "Hg10 mi
7:20 AM48 °FSunny.5 mph82%30.33 "Hg10 mi
6:50 AM46 °FSunny.8 mph82%30.30 "Hg10 mi
6:20 AM45 °FClear.7 mph87%30.30 "Hg10 mi
5:50 AM43 °FClear.7 mph87%30.30 "Hg10 mi
5:20 AM43 °FClear.5 mph87%30.30 "Hg10 mi
10:50 PM
Thu, May 21
50 °FClear.5 mph71%30.30 "Hg10 mi
10:20 PM52 °FSunny.6 mph72%30.30 "Hg10 mi
9:50 PM52 °FSunny.5 mph67%30.30 "Hg10 mi
9:20 PM52 °FSunny.3 mph72%30.30 "Hg10 mi
8:50 PM54 °FSunny.3 mph67%30.27 "Hg10 mi
8:20 PM57 °FSunny.2 mph55%30.27 "Hg10 mi
7:50 PM59 °FSunny.5 mph48%30.27 "Hg10 mi
7:20 PM59 °FSunny.7 mph45%30.27 "Hg10 mi
6:50 PM59 °FSunny.8 mph45%30.27 "Hg10 mi
6:20 PM61 °FSunny.7 mph39%30.27 "Hg10 mi
5:50 PM61 °FSunny.7 mph42%30.27 "Hg10 mi
5:20 PM61 °FSunny.7 mph36%30.24 "Hg10 mi
4:50 PM61 °FSunny.7 mph39%30.24 "Hg10 mi
4:20 PM64 °FSunny.9 mph34%30.24 "Hg10 mi
3:50 PM63 °FSunny.9 mph32%30.27 "Hg10 mi
3:20 PM59 °FRefreshingly cool.9 mph42%30.27 "HgN/A
2:50 PM61 °FSunny.12 mph36%30.24 "Hg10 mi
2:20 PM63 °FSunny.14 mph37%30.27 "Hg10 mi
Weather by CustomWeather, © 2015

See weather overviewHow to use our weather pages